7 * 24
多渠道服务支持
NAVSTAR 68(USA 242)是美国于2013年5月15日08:00发射的GPS导航卫星,隶属于美国全球定位系统(GPS)的NAVSTAR卫星系列。该卫星主要为全球用户提供高精度的定位、导航与授时服务,广泛应用于军事、民用交通、测绘等领域,是GPS组网中补充增强定位能力的重要节点,保障了全球范围内定位服务的稳定性与覆盖精度。
美国
(US)
| 数据来源 | 国际轨道数据 |
| 星历时间: | 2026-07-27T09:40:07+0800 21小时前 查看轨道信息 |
| 半长轴: | 26560.366km |
| 偏心率: | 0.0141411 |
| 轨道倾角: | 54.474° |
| 近地点辐角 | 51.109° |
| 升交点赤经 | 267.347° |
| 平近点角 | 310.230° |
| 近地点: | 19806.636km |
| 远地点: | 20557.822km |
| 周期: | 717.977分钟 |
| 每日圈数: | 2.005634 |